Location: Aula-Vintri
(58.3875°N, 22.4322°E)
Time: 15:46:51
(UTC+00:00)

Cosmos 1076 Rocket - Pass Details

Date: 13 October 2019
Orbit: 589 x 613 km, 82.5° (Epoch: 14 November)

Event Time Altitude Azimuth Distance (km) Brightness Sun altitude
Rises 17:17:30 0° 349° (NNW) 2,898 7.3 -14.6°
Reaches altitude 10° 17:19:50 10° 356° (N) 1,988 6.3 -14.9°
Maximum altitude 17:24:02 43° 68° (ENE) 876 3.9 -15.5°
Enters shadow 17:26:02 26° 123° (ESE) 1,215 4.5 -15.7°
